Time,TemperatureF,DewpointF,PressureIn,WindDirection,WindDirectionDegrees,WindSpeedMPH,WindSpeedGustMPH,Humidity,HourlyPrecipIn,Conditions,Clouds,dailyrainin,SoftwareType,DateUTC
2013-09-10 00:00:00,68.9,66.2,29.35,SW,225,0.0,0.0,91,0.00,,,-99.99,VWS V12.07,2013-09-10 05:00:00,
2013-09-10 00:05:00,69.0,66.3,29.35,SW,225,0.0,0.0,91,0.00,,,-99.99,VWS V12.07,2013-09-10 05:05:00,
2013-09-10 00:10:00,69.0,66.3,29.35,SW,225,0.0,0.0,91,0.00,,,-99.99,VWS V12.07,2013-09-10 05:10:00,
2013-09-10 00:15:00,68.7,65.7,29.35,SW,225,0.0,0.0,90,0.00,,,-99.99,VWS V12.07,2013-09-10 05:15:00,
2013-09-10 00:20:00,68.7,65.7,29.36,SW,225,0.0,0.0,90,0.00,,,-99.99,VWS V12.07,2013-09-10 05:20:00,
2013-09-10 00:25:00,68.3,65.6,29.36,SW,225,0.0,0.0,91,0.00,,,-99.99,VWS V12.07,2013-09-10 05:25:00,
2013-09-10 00:30:00,68.3,65.6,29.36,SW,225,0.0,0.0,91,0.00,,,-99.99,VWS V12.07,2013-09-10 05:30:00,
2013-09-10 00:35:00,68.1,65.4,29.37,SW,225,0.0,0.0,91,0.00,,,-99.99,VWS V12.07,2013-09-10 05:35:00,
2013-09-10 00:40:00,68.1,65.4,29.37,SW,225,0.0,0.0,91,0.00,,,-99.99,VWS V12.07,2013-09-10 05:40:00,
2013-09-10 00:45:00,68.1,65.4,29.37,SW,225,0.0,0.0,91,0.00,,,-99.99,VWS V12.07,2013-09-10 05:45:00,
2013-09-10 00:50:00,68.1,65.4,29.37,SW,225,0.0,0.0,91,0.00,,,-99.99,VWS V12.07,2013-09-10 05:50:00,
2013-09-10 00:55:00,68.0,65.3,29.38,SW,225,0.0,0.0,91,0.00,,,-99.99,VWS V12.07,2013-09-10 05:55:00,
2013-09-10 01:00:00,67.8,65.1,29.37,SW,225,0.0,0.0,91,0.00,,,-99.99,VWS V12.07,2013-09-10 06:00:00,
2013-09-10 01:10:00,67.6,64.9,29.37,SW,225,0.0,0.0,91,0.00,,,-99.99,VWS V12.07,2013-09-10 06:10:00,
2013-09-10 01:15:00,67.6,64.9,29.37,SW,225,0.0,0.0,91,0.00,,,-99.99,VWS V12.07,2013-09-10 06:15:00,
2013-09-10 01:20:00,67.6,64.9,29.37,SW,225,0.0,0.0,91,0.00,,,-99.99,VWS V12.07,2013-09-10 06:20:00,
2013-09-10 01:25:00,67.4,64.7,29.37,SW,225,0.0,0.0,91,0.00,,,-99.99,VWS V12.07,2013-09-10 06:25:00,
2013-09-10 01:30:00,67.4,64.7,29.37,SW,225,0.0,0.0,91,0.00,,,-99.99,VWS V12.07,2013-09-10 06:30:00,
2013-09-10 01:35:00,67.2,64.5,29.38,SW,225,0.0,0.0,91,0.00,,,-99.99,VWS V12.07,2013-09-10 06:35:00,
2013-09-10 01:40:00,67.2,64.5,29.38,SW,225,0.0,0.0,91,0.00,,,-99.99,VWS V12.07,2013-09-10 06:40:00,
2013-09-10 01:45:00,67.1,64.4,29.38,SW,225,0.0,0.0,91,0.00,,,-99.99,VWS V12.07,2013-09-10 06:45:00,
2013-09-10 01:50:00,66.9,64.2,29.38,SW,225,0.0,0.0,91,0.00,,,-99.99,VWS V12.07,2013-09-10 06:50:00,
2013-09-10 01:55:00,66.7,64.0,29.38,SW,225,0.0,0.0,91,0.00,,,-99.99,VWS V12.07,2013-09-10 06:55:00,
2013-09-10 02:00:00,66.7,64.0,29.39,SW,225,0.0,0.0,91,0.00,,,-99.99,VWS V12.07,2013-09-10 07:00:00,
2013-09-10 02:05:00,66.5,63.8,29.39,SW,225,0.0,0.0,91,0.00,,,-99.99,VWS V12.07,2013-09-10 07:05:00,
2013-09-10 02:10:00,66.3,63.6,29.39,SW,225,0.0,0.0,91,0.00,,,-99.99,VWS V12.07,2013-09-10 07:10:00,
2013-09-10 02:15:00,66.3,63.6,29.39,SW,225,0.0,0.0,91,0.00,,,-99.99,VWS V12.07,2013-09-10 07:15:00,
2013-09-10 02:20:00,66.3,63.6,29.39,SW,225,0.0,0.0,91,0.00,,,-99.99,VWS V12.07,2013-09-10 07:20:00,
2013-09-10 02:25:00,66.2,63.5,29.39,SW,225,0.0,0.0,91,0.00,,,-99.99,VWS V12.07,2013-09-10 07:25:00,
2013-09-10 02:30:00,66.2,63.5,29.39,SW,225,0.0,0.0,91,0.00,,,-99.99,VWS V12.07,2013-09-10 07:30:00,
2013-09-10 02:35:00,66.0,63.3,29.39,SW,225,0.0,0.0,91,0.00,,,-99.99,VWS V12.07,2013-09-10 07:35:00,
2013-09-10 02:40:00,66.2,63.5,29.39,SW,225,0.0,0.0,91,0.00,,,-99.99,VWS V12.07,2013-09-10 07:40:00,
2013-09-10 02:45:00,66.2,63.5,29.40,SW,225,0.0,0.0,91,0.00,,,-99.99,VWS V12.07,2013-09-10 07:45:00,
2013-09-10 02:50:00,66.3,63.6,29.40,SW,225,0.0,0.0,91,0.00,,,-99.99,VWS V12.07,2013-09-10 07:50:00,
2013-09-10 02:55:00,66.5,63.8,29.40,SW,225,0.0,0.0,91,0.00,,,-99.99,VWS V12.07,2013-09-10 07:55:00,
2013-09-10 03:00:00,66.5,63.8,29.40,SW,225,0.0,0.0,91,0.00,,,-99.99,VWS V12.07,2013-09-10 08:00:00,
2013-09-10 03:05:00,66.3,63.6,29.40,SW,225,0.0,0.0,91,0.00,,,-99.99,VWS V12.07,2013-09-10 08:05:00,
2013-09-10 03:10:00,66.5,64.1,29.40,SW,225,0.0,0.0,92,0.00,,,-99.99,VWS V12.07,2013-09-10 08:10:00,
2013-09-10 03:15:00,66.5,64.1,29.40,SW,225,0.0,0.0,92,0.00,,,-99.99,VWS V12.07,2013-09-10 08:15:00,
2013-09-10 03:20:00,66.7,64.3,29.40,SW,225,0.0,0.0,92,0.00,,,-99.99,VWS V12.07,2013-09-10 08:20:00,
2013-09-10 03:25:00,66.7,64.3,29.40,SW,225,0.0,0.0,92,0.00,,,-99.99,VWS V12.07,2013-09-10 08:25:00,
2013-09-10 03:30:00,66.9,64.5,29.40,SW,225,0.0,0.0,92,0.00,,,-99.99,VWS V12.07,2013-09-10 08:30:00,
2013-09-10 03:35:00,67.1,64.7,29.41,SW,225,0.0,0.0,92,0.00,,,-99.99,VWS V12.07,2013-09-10 08:35:00,
2013-09-10 03:40:00,67.2,64.8,29.40,SW,225,0.0,0.0,92,0.00,,,-99.99,VWS V12.07,2013-09-10 08:40:00,
2013-09-10 03:45:00,67.6,65.2,29.40,SW,225,0.0,0.0,92,0.00,,,-99.99,VWS V12.07,2013-09-10 08:45:00,
2013-09-10 03:50:00,67.6,65.2,29.40,SW,225,2.0,2.0,92,0.00,,,-99.99,VWS V12.07,2013-09-10 08:50:00,
2013-09-10 03:55:00,67.8,65.4,29.40,SW,225,0.0,2.0,92,0.00,,,-99.99,VWS V12.07,2013-09-10 08:55:00,
2013-09-10 04:00:00,67.8,65.4,29.40,SW,225,0.0,2.0,92,0.00,,,-99.99,VWS V12.07,2013-09-10 09:00:00,
2013-09-10 04:05:00,68.0,65.6,29.40,SW,225,0.0,0.0,92,0.00,,,-99.99,VWS V12.07,2013-09-10 09:05:00,
2013-09-10 04:10:00,68.1,65.7,29.40,SW,225,0.0,0.0,92,0.00,,,-99.99,VWS V12.07,2013-09-10 09:10:00,
2013-09-10 04:15:00,68.1,65.7,29.41,SW,225,0.0,0.0,92,0.00,,,-99.99,VWS V12.07,2013-09-10 09:15:00,
2013-09-10 04:20:00,68.1,65.7,29.41,SW,225,0.0,0.0,92,0.00,,,-99.99,VWS V12.07,2013-09-10 09:20:00,
2013-09-10 04:25:00,68.1,65.7,29.41,SW,225,0.0,0.0,92,0.00,,,-99.99,VWS V12.07,2013-09-10 09:25:00,
2013-09-10 04:30:00,68.1,65.7,29.40,SW,225,0.0,0.0,92,0.00,,,-99.99,VWS V12.07,2013-09-10 09:30:00,
2013-09-10 04:35:00,68.1,65.7,29.41,SW,225,0.0,0.0,92,0.00,,,-99.99,VWS V12.07,2013-09-10 09:35:00,
2013-09-10 04:40:00,68.1,65.7,29.41,SW,225,0.0,0.0,92,0.00,,,-99.99,VWS V12.07,2013-09-10 09:40:00,
2013-09-10 04:45:00,68.1,65.7,29.41,SW,225,0.0,0.0,92,0.00,,,-99.99,VWS V12.07,2013-09-10 09:45:00,
2013-09-10 04:50:00,68.0,65.6,29.42,SW,225,0.0,0.0,92,0.00,,,-99.99,VWS V12.07,2013-09-10 09:50:00,
2013-09-10 04:55:00,67.8,65.4,29.42,SW,225,0.0,0.0,92,0.00,,,-99.99,VWS V12.07,2013-09-10 09:55:00,
2013-09-10 05:00:00,67.8,65.7,29.42,SW,225,0.0,0.0,93,0.00,,,-99.99,VWS V12.07,2013-09-10 10:00:00,
2013-09-10 05:05:00,67.8,65.7,29.42,SW,225,0.0,0.0,93,0.00,,,-99.99,VWS V12.07,2013-09-10 10:05:00,
2013-09-10 05:10:00,68.0,65.9,29.42,SW,225,0.0,0.0,93,0.00,,,-99.99,VWS V12.07,2013-09-10 10:10:00,
2013-09-10 05:15:00,68.0,65.9,29.43,SW,225,0.0,0.0,93,0.00,,,-99.99,VWS V12.07,2013-09-10 10:15:00,
2013-09-10 05:20:00,68.0,65.9,29.43,SW,225,0.0,0.0,93,0.00,,,-99.99,VWS V12.07,2013-09-10 10:20:00,
2013-09-10 05:25:00,68.1,66.0,29.42,SW,225,0.0,0.0,93,0.00,,,-99.99,VWS V12.07,2013-09-10 10:25:00,
2013-09-10 05:30:00,68.0,65.9,29.42,SW,225,0.0,0.0,93,0.00,,,-99.99,VWS V12.07,2013-09-10 10:30:00,
2013-09-10 05:35:00,67.8,65.7,29.42,SW,225,0.0,0.0,93,0.00,,,-99.99,VWS V12.07,2013-09-10 10:35:00,
2013-09-10 05:40:00,67.8,65.7,29.42,SW,225,0.0,0.0,93,0.00,,,-99.99,VWS V12.07,2013-09-10 10:40:00,
2013-09-10 05:45:00,67.8,65.7,29.42,SW,225,0.0,0.0,93,0.00,,,-99.99,VWS V12.07,2013-09-10 10:45:00,
2013-09-10 05:50:00,67.8,65.7,29.43,SW,225,0.0,0.0,93,0.00,,,-99.99,VWS V12.07,2013-09-10 10:50:00,
2013-09-10 05:55:00,67.6,65.5,29.43,SW,225,0.0,0.0,93,0.00,,,-99.99,VWS V12.07,2013-09-10 10:55:00,
2013-09-10 06:00:00,67.6,65.5,29.42,SW,225,0.0,0.0,93,0.00,,,-99.99,VWS V12.07,2013-09-10 11:00:00,
2013-09-10 06:05:00,67.6,65.5,29.42,SW,225,0.0,0.0,93,0.00,,,-99.99,VWS V12.07,2013-09-10 11:05:00,
2013-09-10 06:10:00,67.6,65.5,29.42,SW,225,0.0,0.0,93,0.00,,,-99.99,VWS V12.07,2013-09-10 11:10:00,
2013-09-10 06:15:00,67.6,65.5,29.43,SW,225,0.0,0.0,93,0.00,,,-99.99,VWS V12.07,2013-09-10 11:15:00,
2013-09-10 06:20:00,67.6,65.5,29.43,SW,225,0.0,0.0,93,0.00,,,-99.99,VWS V12.07,2013-09-10 11:20:00,
2013-09-10 06:25:00,67.6,65.5,29.43,SW,225,0.0,0.0,93,0.00,,,-99.99,VWS V12.07,2013-09-10 11:25:00,
2013-09-10 06:30:00,67.6,65.5,29.44,SW,225,0.0,0.0,93,0.00,,,-99.99,VWS V12.07,2013-09-10 11:30:00,
2013-09-10 06:35:00,67.6,65.5,29.44,SW,225,0.0,0.0,93,0.00,,,-99.99,VWS V12.07,2013-09-10 11:35:00,
2013-09-10 06:40:00,67.6,65.5,29.44,SW,225,0.0,0.0,93,0.00,,,-99.99,VWS V12.07,2013-09-10 11:40:00,
2013-09-10 06:45:00,67.6,65.5,29.43,SW,225,0.0,1.7,93,0.00,,,-99.99,VWS V12.07,2013-09-10 11:45:00,
2013-09-10 06:50:00,67.6,65.5,29.44,SW,225,0.0,0.0,93,0.00,,,-99.99,VWS V12.07,2013-09-10 11:50:00,
2013-09-10 06:55:00,67.6,65.5,29.44,SW,225,0.0,0.0,93,0.00,,,-99.99,VWS V12.07,2013-09-10 11:55:00,
2013-09-10 07:00:00,67.6,65.5,29.44,SW,225,0.0,0.0,93,0.00,,,-99.99,VWS V12.07,2013-09-10 12:00:00,
2013-09-10 07:05:00,67.6,65.5,29.44,SW,225,0.0,0.0,93,0.00,,,-99.99,VWS V12.07,2013-09-10 12:05:00,
2013-09-10 07:10:00,67.6,65.5,29.44,SW,225,0.0,0.0,93,0.00,,,-99.99,VWS V12.07,2013-09-10 12:10:00,
2013-09-10 07:15:00,67.4,65.3,29.44,SW,225,0.6,0.6,93,0.00,,,-99.99,VWS V12.07,2013-09-10 12:15:00,
2013-09-10 07:20:00,67.4,65.3,29.45,SW,225,0.0,0.6,93,0.00,,,-99.99,VWS V12.07,2013-09-10 12:20:00,
2013-09-10 07:25:00,67.4,65.3,29.45,SW,225,1.5,1.5,93,0.00,,,-99.99,VWS V12.07,2013-09-10 12:25:00,
2013-09-10 07:30:00,67.2,65.1,29.45,SW,225,0.0,1.5,93,0.00,,,-99.99,VWS V12.07,2013-09-10 12:30:00,
2013-09-10 07:35:00,67.4,65.3,29.45,SW,225,0.0,0.0,93,0.00,,,-99.99,VWS V12.07,2013-09-10 12:35:00,
2013-09-10 07:40:00,67.6,65.5,29.45,SW,225,0.0,0.0,93,0.00,,,-99.99,VWS V12.07,2013-09-10 12:40:00,
2013-09-10 07:45:00,67.8,65.7,29.45,SW,225,0.0,0.0,93,0.00,,,-99.99,VWS V12.07,2013-09-10 12:45:00,
2013-09-10 07:50:00,68.0,65.9,29.45,SW,225,0.0,0.0,93,0.00,,,-99.99,VWS V12.07,2013-09-10 12:50:00,
2013-09-10 07:55:00,68.1,66.0,29.45,SW,225,0.0,0.0,93,0.00,,,-99.99,VWS V12.07,2013-09-10 12:55:00,
2013-09-10 08:00:00,68.3,66.2,29.45,SW,225,0.0,0.0,93,0.00,,,-99.99,VWS V12.07,2013-09-10 13:00:00,
2013-09-10 08:05:00,68.3,66.2,29.46,SW,225,0.0,1.3,93,0.00,,,-99.99,VWS V12.07,2013-09-10 13:05:00,
2013-09-10 08:10:00,68.5,66.4,29.46,SW,225,0.0,1.3,93,0.00,,,-99.99,VWS V12.07,2013-09-10 13:10:00,
2013-09-10 08:15:00,68.7,66.6,29.47,SSW,202,6.9,6.9,93,0.00,,,-99.99,VWS V12.07,2013-09-10 13:15:00,
2013-09-10 08:20:00,68.9,66.8,29.47,SSW,202,0.0,6.9,93,0.00,,,-99.99,VWS V12.07,2013-09-10 13:20:00,
2013-09-10 08:25:00,69.2,67.1,29.47,SW,225,0.0,6.9,93,0.00,,,-99.99,VWS V12.07,2013-09-10 13:25:00,
2013-09-10 08:30:00,69.2,67.1,29.48,WNW,292,2.2,6.9,93,0.00,,,-99.99,VWS V12.07,2013-09-10 13:30:00,
2013-09-10 08:35:00,69.4,67.3,29.48,West,270,0.0,2.2,93,0.00,,,-99.99,VWS V12.07,2013-09-10 13:35:00,
2013-09-10 08:40:00,69.0,66.9,29.47,SSW,202,0.0,2.2,93,0.00,,,-99.99,VWS V12.07,2013-09-10 13:40:00,
2013-09-10 08:45:00,69.2,67.1,29.47,SW,225,0.0,2.2,93,0.00,,,-99.99,VWS V12.07,2013-09-10 13:45:00,
2013-09-10 08:50:00,69.4,67.3,29.47,NW,315,0.0,0.0,93,0.00,,,-99.99,VWS V12.07,2013-09-10 13:50:00,
2013-09-10 08:55:00,69.6,67.5,29.47,SW,225,0.0,0.0,93,0.00,,,-99.99,VWS V12.07,2013-09-10 13:55:00,
2013-09-10 09:00:00,69.8,67.7,29.48,NW,315,0.0,0.0,93,0.00,,,-99.99,VWS V12.07,2013-09-10 14:00:00,
2013-09-10 09:05:00,69.9,67.8,29.48,SW,225,0.0,0.0,93,0.00,,,-99.99,VWS V12.07,2013-09-10 14:05:00,
2013-09-10 09:10:00,70.3,68.2,29.48,West,270,1.7,1.7,93,0.00,,,-99.99,VWS V12.07,2013-09-10 14:10:00,
2013-09-10 09:15:00,70.5,68.4,29.48,SSW,202,2.9,2.9,93,0.00,,,-99.99,VWS V12.07,2013-09-10 14:15:00,
2013-09-10 09:20:00,70.5,68.1,29.49,WSW,248,4.0,4.0,92,0.00,,,-99.99,VWS V12.07,2013-09-10 14:20:00,
2013-09-10 09:25:00,70.5,68.1,29.48,WSW,248,0.0,4.0,92,0.00,,,-99.99,VWS V12.07,2013-09-10 14:25:00,
2013-09-10 09:30:00,70.8,68.1,29.48,SW,225,0.0,4.0,91,0.00,,,-99.99,VWS V12.07,2013-09-10 14:30:00,
2013-09-10 09:35:00,71.2,68.4,29.49,SW,225,0.0,0.0,91,0.00,,,-99.99,VWS V12.07,2013-09-10 14:35:00,
2013-09-10 09:40:00,71.2,68.1,29.49,WSW,248,0.0,7.6,90,0.00,,,-99.99,VWS V12.07,2013-09-10 14:40:00,
2013-09-10 09:45:00,71.2,68.1,29.49,WNW,292,0.2,7.6,90,0.00,,,-99.99,VWS V12.07,2013-09-10 14:45:00,
2013-09-10 09:50:00,71.2,67.8,29.49,SSW,202,4.0,4.0,89,0.00,,,-99.99,VWS V12.07,2013-09-10 14:50:00,
2013-09-10 09:55:00,71.2,67.8,29.49,SW,225,2.2,4.0,89,0.00,,,-99.99,VWS V12.07,2013-09-10 14:55:00,
2013-09-10 10:00:00,71.4,68.0,29.49,SSW,202,0.0,4.0,89,0.00,,,-99.99,VWS V12.07,2013-09-10 15:00:00,
2013-09-10 10:05:00,71.4,67.7,29.49,SW,225,4.0,6.0,88,0.00,,,-99.99,VWS V12.07,2013-09-10 15:05:00,
2013-09-10 10:10:00,71.7,67.6,29.49,SSW,202,0.0,6.0,87,0.00,,,-99.99,VWS V12.07,2013-09-10 15:10:00,
2013-09-10 10:15:00,71.7,67.6,29.50,SSW,202,0.0,6.0,87,0.00,,,-99.99,VWS V12.07,2013-09-10 15:15:00,
2013-09-10 10:20:00,72.1,68.0,29.50,SSW,202,0.0,0.0,87,0.00,,,-99.99,VWS V12.07,2013-09-10 15:20:00,
2013-09-10 10:25:00,72.3,68.2,29.50,SW,225,0.0,0.0,87,0.00,,,-99.99,VWS V12.07,2013-09-10 15:25:00,
2013-09-10 10:30:00,72.6,68.2,29.50,SW,225,0.0,1.7,86,0.00,,,-99.99,VWS V12.07,2013-09-10 15:30:00,
2013-09-10 10:35:00,72.8,68.0,29.50,SSW,202,5.5,5.5,85,0.00,,,-99.99,VWS V12.07,2013-09-10 15:35:00,
2013-09-10 10:40:00,73.0,68.2,29.50,SSW,202,4.9,5.5,85,0.00,,,-99.99,VWS V12.07,2013-09-10 15:40:00,
2013-09-10 10:45:00,73.2,68.1,29.49,SW,225,0.0,5.5,84,0.00,,,-99.99,VWS V12.07,2013-09-10 15:45:00,
2013-09-10 10:50:00,73.2,68.1,29.49,SW,225,0.0,0.0,84,0.00,,,-99.99,VWS V12.07,2013-09-10 15:50:00,
2013-09-10 10:55:00,73.7,68.2,29.49,SW,225,0.0,0.0,83,0.00,,,-99.99,VWS V12.07,2013-09-10 15:55:00,
2013-09-10 11:00:00,73.7,68.2,29.50,WSW,248,0.0,0.0,83,0.00,,,-99.99,VWS V12.07,2013-09-10 16:00:00,
2013-09-10 11:05:00,73.9,68.4,29.49,West,270,0.0,0.0,83,0.00,,,-99.99,VWS V12.07,2013-09-10 16:05:00,
2013-09-10 11:10:00,74.3,68.4,29.49,SW,225,0.0,0.0,82,0.00,,,-99.99,VWS V12.07,2013-09-10 16:10:00,
2013-09-10 11:15:00,74.8,68.6,29.50,SSW,202,0.0,1.3,81,0.00,,,-99.99,VWS V12.07,2013-09-10 16:15:00,
2013-09-10 11:20:00,75.0,68.8,29.50,SW,225,2.2,2.2,81,0.00,,,-99.99,VWS V12.07,2013-09-10 16:20:00,
2013-09-10 11:25:00,75.3,68.7,29.50,SSW,202,5.8,7.6,80,0.00,,,-99.99,VWS V12.07,2013-09-10 16:25:00,
2013-09-10 11:30:00,75.5,68.5,29.50,WSW,248,5.5,7.6,79,0.00,,,-99.99,VWS V12.07,2013-09-10 16:30:00,
2013-09-10 11:35:00,75.7,68.4,29.50,SW,225,0.0,5.5,78,0.00,,,-99.99,VWS V12.07,2013-09-10 16:35:00,
2013-09-10 11:40:00,76.1,68.4,29.49,SW,225,0.0,6.0,77,0.00,,,-99.99,VWS V12.07,2013-09-10 16:40:00,
2013-09-10 11:45:00,76.2,68.5,29.49,SW,225,0.0,6.0,77,0.00,,,-99.99,VWS V12.07,2013-09-10 16:45:00,
2013-09-10 11:50:00,76.4,68.3,29.49,SW,225,0.0,2.6,76,0.00,,,-99.99,VWS V12.07,2013-09-10 16:50:00,
2013-09-10 11:55:00,76.8,68.3,29.50,WSW,248,0.0,4.9,75,0.00,,,-99.99,VWS V12.07,2013-09-10 16:55:00,
2013-09-10 12:00:00,76.8,67.9,29.50,SW,225,0.0,4.9,74,0.00,,,-99.99,VWS V12.07,2013-09-10 17:00:00,
2013-09-10 12:05:00,76.8,67.9,29.50,SSW,202,1.7,6.0,74,0.00,,,-99.99,VWS V12.07,2013-09-10 17:05:00,
2013-09-10 12:10:00,76.8,67.5,29.50,SW,225,0.0,6.0,73,0.00,,,-99.99,VWS V12.07,2013-09-10 17:10:00,
2013-09-10 12:15:00,76.8,67.5,29.50,SSW,202,0.0,6.0,73,0.00,,,-99.99,VWS V12.07,2013-09-10 17:15:00,
2013-09-10 12:20:00,76.8,67.5,29.50,SSW,202,8.0,8.0,73,0.00,,,-99.99,VWS V12.07,2013-09-10 17:20:00,
2013-09-10 12:25:00,77.1,67.4,29.50,SSE,158,0.0,8.0,72,0.00,,,-99.99,VWS V12.07,2013-09-10 17:25:00,
2013-09-10 12:30:00,77.3,67.2,29.50,West,270,0.0,8.0,71,0.00,,,-99.99,VWS V12.07,2013-09-10 17:30:00,
2013-09-10 12:35:00,77.5,67.4,29.50,SSW,202,6.2,6.2,71,0.00,,,-99.99,VWS V12.07,2013-09-10 17:35:00,
2013-09-10 12:40:00,77.9,67.3,29.50,SW,225,3.1,6.2,70,0.00,,,-99.99,VWS V12.07,2013-09-10 17:40:00,
2013-09-10 12:45:00,77.7,67.1,29.50,West,270,0.0,6.2,70,0.00,,,-99.99,VWS V12.07,2013-09-10 17:45:00,
2013-09-10 12:50:00,77.7,67.1,29.50,SE,135,0.0,0.0,70,0.00,,,-99.99,VWS V12.07,2013-09-10 17:50:00,
2013-09-10 12:55:00,77.9,66.5,29.50,SSW,202,0.0,0.2,68,0.00,,,-99.99,VWS V12.07,2013-09-10 17:55:00,
2013-09-10 13:00:00,78.0,66.2,29.50,WSW,248,0.0,0.2,67,0.00,,,-99.99,VWS V12.07,2013-09-10 18:00:00,
2013-09-10 13:05:00,78.0,66.2,29.50,SSW,202,2.4,2.4,67,0.00,,,-99.99,VWS V12.07,2013-09-10 18:05:00,
2013-09-10 13:10:00,78.0,66.2,29.50,West,270,0.0,2.4,67,0.00,,,-99.99,VWS V12.07,2013-09-10 18:10:00,
2013-09-10 13:15:00,78.0,66.2,29.51,SW,225,0.0,2.4,67,0.00,,,-99.99,VWS V12.07,2013-09-10 18:15:00,
2013-09-10 13:20:00,78.2,66.4,29.51,SW,225,0.0,0.0,67,0.00,,,-99.99,VWS V12.07,2013-09-10 18:20:00,
2013-09-10 13:25:00,78.0,66.2,29.52,West,270,0.0,0.0,67,0.00,,,-99.99,VWS V12.07,2013-09-10 18:25:00,
2013-09-10 13:30:00,78.0,66.2,29.52,SSW,202,0.0,0.0,67,0.00,,,-99.99,VWS V12.07,2013-09-10 18:30:00,
2013-09-10 13:35:00,78.0,66.2,29.52,West,270,0.0,0.0,67,0.00,,,-99.99,VWS V12.07,2013-09-10 18:35:00,
2013-09-10 13:40:00,77.7,65.9,29.52,WSW,248,0.0,0.0,67,0.00,,,-99.99,VWS V12.07,2013-09-10 18:40:00,
2013-09-10 13:45:00,77.5,65.7,29.52,NW,315,0.0,0.0,67,0.00,,,-99.99,VWS V12.07,2013-09-10 18:45:00,
2013-09-10 13:50:00,77.1,65.3,29.52,West,270,0.0,0.0,67,0.00,,,-99.99,VWS V12.07,2013-09-10 18:50:00,
2013-09-10 13:55:00,76.8,65.4,29.52,SSW,202,0.0,0.0,68,0.00,,,-99.99,VWS V12.07,2013-09-10 18:55:00,
2013-09-10 14:05:00,76.1,64.8,29.52,SSW,202,0.0,0.0,68,0.00,,,-99.99,VWS V12.07,2013-09-10 19:05:00,
2013-09-10 14:10:00,75.9,65.0,29.52,SW,225,0.0,0.0,69,0.00,,,-99.99,VWS V12.07,2013-09-10 19:10:00,
2013-09-10 14:15:00,75.7,64.8,29.53,WSW,248,0.0,0.0,69,0.00,,,-99.99,VWS V12.07,2013-09-10 19:15:00,
2013-09-10 14:20:00,75.7,65.2,29.53,West,270,0.0,0.0,70,0.00,,,-99.99,VWS V12.07,2013-09-10 19:20:00,
2013-09-10 14:30:00,75.2,64.8,29.53,NE,45,0.0,0.0,70,0.00,,,-99.99,VWS V12.07,2013-09-10 19:30:00,
2013-09-10 14:35:00,75.0,64.6,29.54,WSW,248,0.0,0.0,70,0.00,,,-99.99,VWS V12.07,2013-09-10 19:35:00,
2013-09-10 14:40:00,74.3,64.3,29.54,North,0,0.0,0.0,71,0.00,,,-99.99,VWS V12.07,2013-09-10 19:40:00,
2013-09-10 14:45:00,73.9,63.9,29.54,WNW,292,0.0,0.0,71,0.00,,,-99.99,VWS V12.07,2013-09-10 19:45:00,
2013-09-10 14:50:00,73.5,63.5,29.55,SW,225,0.0,0.0,71,0.00,,,-99.99,VWS V12.07,2013-09-10 19:50:00,
2013-09-10 14:55:00,73.2,63.6,29.54,WSW,248,0.0,0.0,72,0.00,,,-99.99,VWS V12.07,2013-09-10 19:55:00,
2013-09-10 15:00:00,72.6,63.5,29.54,NNW,338,0.0,0.0,73,0.00,,,-99.99,VWS V12.07,2013-09-10 20:00:00,
2013-09-10 15:05:00,71.9,62.8,29.54,NNW,338,0.0,0.0,73,0.00,,,-99.99,VWS V12.07,2013-09-10 20:05:00,
2013-09-10 15:10:00,70.8,62.5,29.54,NNW,338,0.0,0.0,75,0.00,,,-99.99,VWS V12.07,2013-09-10 20:10:00,
2013-09-10 15:15:00,70.3,62.4,29.55,NNW,338,0.0,0.0,76,0.02,,,-99.99,VWS V12.07,2013-09-10 20:15:00,
2013-09-10 15:20:00,69.4,61.9,29.55,NW,315,0.0,0.0,77,0.04,,,-99.99,VWS V12.07,2013-09-10 20:20:00,
2013-09-10 15:25:00,68.7,61.6,29.55,West,270,0.0,0.0,78,0.06,,,-99.99,VWS V12.07,2013-09-10 20:25:00,
2013-09-10 15:30:00,68.1,61.3,29.55,SW,225,0.0,0.0,79,0.06,,,-99.99,VWS V12.07,2013-09-10 20:30:00,
2013-09-10 15:35:00,67.8,61.1,29.55,SW,225,0.0,0.0,79,0.06,,,-99.99,VWS V12.07,2013-09-10 20:35:00,
2013-09-10 15:40:00,67.1,60.7,29.56,SW,225,0.0,0.0,80,0.06,,,-99.99,VWS V12.07,2013-09-10 20:40:00,
2013-09-10 15:45:00,66.7,60.3,29.55,SW,225,0.0,0.0,80,0.06,,,-99.99,VWS V12.07,2013-09-10 20:45:00,
2013-09-10 15:50:00,66.7,60.7,29.55,SW,225,0.0,0.0,81,0.06,,,-99.99,VWS V12.07,2013-09-10 20:50:00,
2013-09-10 15:55:00,66.3,60.7,29.55,SW,225,0.0,0.0,82,0.06,,,-99.99,VWS V12.07,2013-09-10 20:55:00,
2013-09-10 16:00:00,66.2,60.5,29.55,SW,225,0.0,0.0,82,0.06,,,-99.99,VWS V12.07,2013-09-10 21:00:00,
2013-09-10 16:05:00,66.0,60.3,29.55,SW,225,0.0,0.0,82,0.06,,,-99.99,VWS V12.07,2013-09-10 21:05:00,
2013-09-10 16:10:00,65.8,60.5,29.54,SW,225,0.0,0.0,83,0.04,,,-99.99,VWS V12.07,2013-09-10 21:10:00,
2013-09-10 16:15:00,65.8,60.5,29.55,SW,225,0.0,0.0,83,0.04,,,-99.99,VWS V12.07,2013-09-10 21:15:00,
2013-09-10 16:20:00,65.6,60.6,29.54,SW,225,0.0,0.0,84,0.02,,,-99.99,VWS V12.07,2013-09-10 21:20:00,
2013-09-10 16:25:00,65.6,60.6,29.55,SW,225,0.0,0.0,84,0.00,,,-99.99,VWS V12.07,2013-09-10 21:25:00,
2013-09-10 16:30:00,65.6,60.6,29.54,SW,225,0.0,0.0,84,0.00,,,-99.99,VWS V12.07,2013-09-10 21:30:00,
2013-09-10 16:35:00,65.6,60.6,29.54,SW,225,0.0,0.0,84,0.00,,,-99.99,VWS V12.07,2013-09-10 21:35:00,
2013-09-10 16:40:00,65.8,61.2,29.54,SW,225,0.0,0.0,85,0.00,,,-99.99,VWS V12.07,2013-09-10 21:40:00,
2013-09-10 16:45:00,65.8,61.2,29.54,SW,225,0.0,0.0,85,0.00,,,-99.99,VWS V12.07,2013-09-10 21:45:00,
2013-09-10 16:50:00,65.8,61.2,29.54,SW,225,0.0,0.0,85,0.00,,,-99.99,VWS V12.07,2013-09-10 21:50:00,
2013-09-10 16:55:00,66.0,61.7,29.54,SW,225,0.0,0.0,86,0.00,,,-99.99,VWS V12.07,2013-09-10 21:55:00,
2013-09-10 17:00:00,66.0,61.7,29.54,SW,225,0.0,0.0,86,0.00,,,-99.99,VWS V12.07,2013-09-10 22:00:00,
2013-09-10 17:05:00,66.0,61.7,29.54,SW,225,0.0,0.0,86,0.00,,,-99.99,VWS V12.07,2013-09-10 22:05:00,
2013-09-10 17:10:00,66.2,61.9,29.54,SW,225,0.0,0.0,86,0.00,,,-99.99,VWS V12.07,2013-09-10 22:10:00,
2013-09-10 17:15:00,66.3,62.0,29.54,SW,225,0.0,0.0,86,0.00,,,-99.99,VWS V12.07,2013-09-10 22:15:00,
2013-09-10 17:20:00,66.3,62.0,29.54,SW,225,0.0,0.0,86,0.00,,,-99.99,VWS V12.07,2013-09-10 22:20:00,
2013-09-10 17:25:00,66.5,62.2,29.54,SW,225,0.0,0.0,86,0.00,,,-99.99,VWS V12.07,2013-09-10 22:25:00,
2013-09-10 17:30:00,66.5,62.2,29.54,SW,225,0.0,0.0,86,0.00,,,-99.99,VWS V12.07,2013-09-10 22:30:00,
2013-09-10 17:35:00,66.5,62.2,29.54,SW,225,0.0,0.0,86,0.00,,,-99.99,VWS V12.07,2013-09-10 22:35:00,
2013-09-10 17:40:00,66.5,62.2,29.54,SW,225,0.0,0.0,86,0.00,,,-99.99,VWS V12.07,2013-09-10 22:40:00,
2013-09-10 17:45:00,66.5,62.2,29.54,SW,225,0.0,0.0,86,0.00,,,-99.99,VWS V12.07,2013-09-10 22:45:00,
2013-09-10 17:50:00,66.7,62.4,29.54,SW,225,0.0,0.0,86,0.00,,,-99.99,VWS V12.07,2013-09-10 22:50:00,
2013-09-10 17:55:00,66.7,62.4,29.55,SW,225,0.0,0.0,86,0.00,,,-99.99,VWS V12.07,2013-09-10 22:55:00,
2013-09-10 18:00:00,66.7,62.4,29.55,SW,225,0.0,0.0,86,0.00,,,-99.99,VWS V12.07,2013-09-10 23:00:00,
2013-09-10 18:05:00,66.9,62.6,29.54,SW,225,0.0,0.0,86,0.00,,,-99.99,VWS V12.07,2013-09-10 23:05:00,
2013-09-10 18:10:00,67.1,63.1,29.55,SW,225,0.0,0.0,87,0.00,,,-99.99,VWS V12.07,2013-09-10 23:10:00,
2013-09-10 18:15:00,67.1,63.1,29.54,SW,225,0.0,0.0,87,0.00,,,-99.99,VWS V12.07,2013-09-10 23:15:00,
2013-09-10 18:20:00,67.2,63.2,29.55,SW,225,0.0,0.0,87,0.00,,,-99.99,VWS V12.07,2013-09-10 23:20:00,
2013-09-10 18:25:00,67.2,62.9,29.55,SW,225,0.0,0.0,86,0.00,,,-99.99,VWS V12.07,2013-09-10 23:25:00,
2013-09-10 18:30:00,67.1,62.8,29.55,SW,225,0.0,0.0,86,0.00,,,-99.99,VWS V12.07,2013-09-10 23:30:00,
2013-09-10 18:35:00,67.1,62.8,29.55,SW,225,0.0,0.0,86,0.00,,,-99.99,VWS V12.07,2013-09-10 23:35:00,
2013-09-10 18:40:00,66.9,62.6,29.55,SW,225,2.2,2.2,86,0.00,,,-99.99,VWS V12.07,2013-09-10 23:40:00,
2013-09-10 18:45:00,66.9,62.6,29.55,SW,225,0.0,2.2,86,0.00,,,-99.99,VWS V12.07,2013-09-10 23:45:00,
2013-09-10 18:50:00,66.7,62.4,29.55,SW,225,0.0,0.0,86,0.00,,,-99.99,VWS V12.07,2013-09-10 23:50:00,
2013-09-10 18:55:00,66.7,62.7,29.55,SW,225,0.0,0.0,87,0.00,,,-99.99,VWS V12.07,2013-09-10 23:55:00,
2013-09-10 19:00:00,66.5,62.5,29.55,SW,225,0.0,0.0,87,0.00,,,-99.99,VWS V12.07,2013-09-11 00:00:00,
2013-09-10 19:05:00,66.5,62.5,29.55,SW,225,0.0,0.0,87,0.00,,,-99.99,VWS V12.07,2013-09-11 00:05:00,
2013-09-10 19:10:00,66.3,62.3,29.55,SW,225,0.0,0.0,87,0.00,,,-99.99,VWS V12.07,2013-09-11 00:10:00,
2013-09-10 19:15:00,66.3,62.3,29.55,SW,225,0.0,0.0,87,0.00,,,-99.99,VWS V12.07,2013-09-11 00:15:00,
2013-09-10 19:20:00,66.3,62.3,29.55,SW,225,0.0,0.0,87,0.00,,,-99.99,VWS V12.07,2013-09-11 00:20:00,
2013-09-10 19:25:00,66.2,62.2,29.55,SW,225,0.0,0.0,87,0.00,,,-99.99,VWS V12.07,2013-09-11 00:25:00,
2013-09-10 19:30:00,66.0,62.0,29.55,SW,225,0.0,0.0,87,0.00,,,-99.99,VWS V12.07,2013-09-11 00:30:00,
2013-09-10 19:35:00,66.0,62.0,29.55,SW,225,0.0,0.0,87,0.00,,,-99.99,VWS V12.07,2013-09-11 00:35:00,
2013-09-10 19:40:00,66.0,62.0,29.55,SW,225,0.0,0.0,87,0.00,,,-99.99,VWS V12.07,2013-09-11 00:40:00,
2013-09-10 19:45:00,65.8,61.8,29.55,SW,225,0.0,0.0,87,0.00,,,-99.99,VWS V12.07,2013-09-11 00:45:00,
2013-09-10 19:50:00,65.6,61.6,29.56,SW,225,0.0,0.0,87,0.00,,,-99.99,VWS V12.07,2013-09-11 00:50:00,
2013-09-10 19:55:00,65.4,61.4,29.55,SW,225,0.0,0.0,87,0.00,,,-99.99,VWS V12.07,2013-09-11 00:55:00,
2013-09-10 20:00:00,65.3,61.3,29.56,SW,225,0.0,0.0,87,0.00,,,-99.99,VWS V12.07,2013-09-11 01:00:00,
2013-09-10 20:05:00,65.1,61.1,29.56,SW,225,0.0,0.0,87,0.00,,,-99.99,VWS V12.07,2013-09-11 01:05:00,
2013-09-10 20:10:00,65.1,61.5,29.56,SW,225,0.0,0.0,88,0.00,,,-99.99,VWS V12.07,2013-09-11 01:10:00,
2013-09-10 20:15:00,64.9,61.3,29.56,SW,225,0.0,0.0,88,0.00,,,-99.99,VWS V12.07,2013-09-11 01:15:00,
2013-09-10 20:20:00,64.9,61.3,29.56,SW,225,0.0,0.0,88,0.00,,,-99.99,VWS V12.07,2013-09-11 01:20:00,
2013-09-10 20:25:00,64.7,61.1,29.57,SW,225,0.0,0.0,88,0.00,,,-99.99,VWS V12.07,2013-09-11 01:25:00,
2013-09-10 20:30:00,64.5,60.9,29.57,SW,225,0.0,0.0,88,0.00,,,-99.99,VWS V12.07,2013-09-11 01:30:00,
2013-09-10 20:35:00,64.5,60.9,29.57,SW,225,0.0,0.0,88,0.00,,,-99.99,VWS V12.07,2013-09-11 01:35:00,
2013-09-10 20:40:00,64.2,60.6,29.57,SW,225,0.0,0.0,88,0.00,,,-99.99,VWS V12.07,2013-09-11 01:40:00,
2013-09-10 20:45:00,64.2,60.6,29.57,SW,225,0.0,0.0,88,0.00,,,-99.99,VWS V12.07,2013-09-11 01:45:00,
2013-09-10 20:50:00,64.0,60.4,29.57,SW,225,0.0,0.0,88,0.00,,,-99.99,VWS V12.07,2013-09-11 01:50:00,
2013-09-10 20:55:00,63.8,60.2,29.57,SW,225,0.0,0.0,88,0.00,,,-99.99,VWS V12.07,2013-09-11 01:55:00,
2013-09-10 21:00:00,63.6,60.0,29.57,SW,225,0.0,0.0,88,0.00,,,-99.99,VWS V12.07,2013-09-11 02:00:00,
2013-09-10 21:05:00,63.6,60.3,29.56,SW,225,0.0,0.0,89,0.00,,,-99.99,VWS V12.07,2013-09-11 02:05:00,
2013-09-10 21:10:00,63.3,60.0,29.56,SW,225,0.0,0.0,89,0.00,,,-99.99,VWS V12.07,2013-09-11 02:10:00,
2013-09-10 21:15:00,63.3,60.0,29.56,SW,225,0.0,0.0,89,0.00,,,-99.99,VWS V12.07,2013-09-11 02:15:00,
2013-09-10 21:20:00,63.1,59.8,29.56,SW,225,0.0,0.0,89,0.00,,,-99.99,VWS V12.07,2013-09-11 02:20:00,
2013-09-10 21:25:00,62.9,59.6,29.56,SW,225,0.0,0.0,89,0.00,,,-99.99,VWS V12.07,2013-09-11 02:25:00,
2013-09-10 21:30:00,62.7,59.4,29.56,SW,225,0.0,0.0,89,0.00,,,-99.99,VWS V12.07,2013-09-11 02:30:00,
2013-09-10 21:35:00,62.6,59.3,29.56,SW,225,0.0,0.0,89,0.00,,,-99.99,VWS V12.07,2013-09-11 02:35:00,
2013-09-10 21:40:00,62.4,58.8,29.56,SW,225,0.0,0.0,88,0.00,,,-99.99,VWS V12.07,2013-09-11 02:40:00,
2013-09-10 21:45:00,62.2,58.6,29.56,SW,225,0.0,0.0,88,0.00,,,-99.99,VWS V12.07,2013-09-11 02:45:00,
2013-09-10 21:50:00,62.0,58.4,29.56,SW,225,0.0,0.0,88,0.00,,,-99.99,VWS V12.07,2013-09-11 02:50:00,
2013-09-10 21:55:00,61.7,58.1,29.56,SW,225,0.0,0.0,88,0.00,,,-99.99,VWS V12.07,2013-09-11 02:55:00,
2013-09-10 22:00:00,61.5,57.9,29.56,SW,225,0.0,0.0,88,0.00,,,-99.99,VWS V12.07,2013-09-11 03:00:00,
2013-09-10 22:05:00,61.3,57.7,29.56,SW,225,0.0,0.0,88,0.00,,,-99.99,VWS V12.07,2013-09-11 03:05:00,
2013-09-10 22:10:00,61.1,57.5,29.56,SW,225,0.0,0.0,88,0.00,,,-99.99,VWS V12.07,2013-09-11 03:10:00,
2013-09-10 22:15:00,60.9,57.3,29.56,SW,225,0.0,0.0,88,0.00,,,-99.99,VWS V12.07,2013-09-11 03:15:00,
2013-09-10 22:20:00,60.6,57.0,29.56,SW,225,0.0,0.0,88,0.00,,,-99.99,VWS V12.07,2013-09-11 03:20:00,
2013-09-10 22:30:00,60.6,57.3,29.56,SW,225,0.0,0.0,89,0.00,,,-99.99,VWS V12.07,2013-09-11 03:30:00,
2013-09-10 22:35:00,60.4,57.2,29.56,SW,225,0.0,0.0,89,0.00,,,-99.99,VWS V12.07,2013-09-11 03:35:00,
2013-09-10 22:40:00,60.2,57.0,29.56,SW,225,0.0,0.0,89,0.00,,,-99.99,VWS V12.07,2013-09-11 03:40:00,
2013-09-10 22:45:00,60.0,56.8,29.56,SW,225,0.0,0.0,89,0.00,,,-99.99,VWS V12.07,2013-09-11 03:45:00,
2013-09-10 22:50:00,60.0,56.8,29.56,SW,225,0.0,0.0,89,0.00,,,-99.99,VWS V12.07,2013-09-11 03:50:00,
2013-09-10 22:55:00,59.9,56.7,29.56,SW,225,0.0,0.0,89,0.00,,,-99.99,VWS V12.07,2013-09-11 03:55:00,
2013-09-10 23:00:00,59.9,56.7,29.56,SW,225,0.0,0.0,89,0.00,,,-99.99,VWS V12.07,2013-09-11 04:00:00,
2013-09-10 23:05:00,59.9,56.7,29.56,SW,225,0.0,0.0,89,0.00,,,-99.99,VWS V12.07,2013-09-11 04:05:00,
2013-09-10 23:10:00,59.7,56.5,29.56,SW,225,0.0,0.0,89,0.00,,,-99.99,VWS V12.07,2013-09-11 04:10:00,
2013-09-10 23:15:00,59.7,56.5,29.56,SW,225,0.0,0.0,89,0.00,,,-99.99,VWS V12.07,2013-09-11 04:15:00,
2013-09-10 23:20:00,59.7,56.5,29.56,SW,225,0.0,0.0,89,0.00,,,-99.99,VWS V12.07,2013-09-11 04:20:00,
2013-09-10 23:25:00,59.7,56.5,29.56,SW,225,0.0,0.0,89,0.00,,,-99.99,VWS V12.07,2013-09-11 04:25:00,
2013-09-10 23:30:00,59.7,56.5,29.56,SW,225,0.0,0.0,89,0.00,,,-99.99,VWS V12.07,2013-09-11 04:30:00,
2013-09-10 23:35:00,59.7,56.5,29.56,SW,225,0.0,0.0,89,0.00,,,-99.99,VWS V12.07,2013-09-11 04:35:00,
2013-09-10 23:40:00,59.7,56.5,29.55,SW,225,0.0,0.0,89,0.00,,,-99.99,VWS V12.07,2013-09-11 04:40:00,
2013-09-10 23:45:00,59.5,56.6,29.55,SW,225,0.0,0.0,90,0.00,,,-99.99,VWS V12.07,2013-09-11 04:45:00,
2013-09-10 23:50:00,59.5,56.6,29.55,SW,225,0.0,0.0,90,0.00,,,-99.99,VWS V12.07,2013-09-11 04:50:00,
2013-09-10 23:55:00,59.5,56.6,29.55,SW,225,0.0,0.0,90,0.00,,,-99.99,VWS V12.07,2013-09-11 04:55:00,